Tracking 19484 objects as of 20-Jan-2019
HD Live streaming from Space Station
objects crossing your sky now

TYVAK 53B

Track TYVAK 53B now!
10-day predictions


NORAD ID: 42795
Int'l Code: 2017-036AG
Perigee: 499.5 km
Apogee: 508.8 km
Inclination: 97.4 °
Period: 94.6 minutes
Semi major axis: 6875 km
RCS: Unknown
Launch date: June 23, 2017
Source: United States (US)
Launch site: SRIHARIKOTA (SRI)
aabbcc
Your satellite tracking list
Your tracking list is empty




NASA's NSSDC Master Catalog

Two Line Element Set (TLE):
1 42795U 17036AG  19020.13763159  .00001206  00000-0  54345-4 0  9995
2 42795  97.3565  80.3740 0006787 171.6652 188.4699 15.22933269 87532
Source of the keplerian elements: AFSPC